sat.trackr.live / text

‹ back to catalog

STARLINK-5651

NORAD 55357 · 2023-013AC

PAYLOAD ACTIVE UNKNOWN

§ Identity

Operator
Country
US
Launch date
2023-01-26
Launch site
AFETR
Launch vehicle
Mass (kg)
RCS (m²)

Purposes: comms

External: N2YO · Heavens-Above · Gunter

§ Orbital elements

Epoch: 2026-09-20T12:50:14.159904Z

Period
94.27 min
Inclination
43.0010°
Eccentricity
0.0001168
Mean motion
15.27573999 rev/d
Perigee alt
482.3 km
Apogee alt
483.9 km
Semi-major
6,861.2 km
B*
-3.9855e-7
RAAN
282.9195°
Arg perigee
258.7886°
Mean anomaly
101.2835°
Rev number
20,147

§ Raw data

STARLINK-56511 55357U 23013AC  26263.53488611 -.00000273  00000+0 -39855-6 0  99982 55357  43.0010 282.9195 0001168 258.7886 101.2835 15.27573999201472

JSON: /api/v1/satellites/55357 · /tle

For live sub-satellite position, see the globe view (requires WebGL).

§ Visibility from observer

Set your observer location to see the next 7 days of passes ≥ 10°. The values pass through the URL so the page stays shareable.

No JS? Fill the form by hand. The geolocation button needs JavaScript.